Date,TemperatureHighF,TemperatureAvgF,TemperatureLowF,DewpointHighF,DewpointAvgF,DewpointLowF,HumidityHigh,HumidityAvg,HumidityLow,PressureMaxIn,PressureMinIn,WindSpeedMaxMPH,WindSpeedAvgMPH,GustSpeedMaxMPH,PrecipitationSumIn
2013-1-1,30.2,22.1,6.6,24.2,10.4,-2.5,91,61,46,29.86,29.59,6,2,19,0.00
2013-1-2,23.7,8.4,-3.1,11.0,-1.7,-11.9,85,65,41,30.06,29.81,7,2,27,0.00
2013-1-3,21.4,4.4,-5.1,0.5,-6.1,-11.7,81,62,33,30.06,29.90,4,1,12,0.00
2013-1-4,37.2,19.5,-2.0,23.9,11.9,-6.3,83,72,52,29.89,29.69,5,1,13,0.00
2013-1-5,34.2,27.0,13.5,25.9,16.6,9.7,86,66,38,30.19,29.71,8,2,22,0.00
2013-1-6,36.7,24.3,11.7,25.5,18.9,8.3,93,80,62,30.16,29.84,2,0,6,0.00
2013-1-7,31.8,22.4,6.3,28.2,14.7,3.6,94,74,45,30.32,29.88,6,2,20,0.00
2013-1-8,41.5,18.8,1.2,23.7,12.2,-2.1,89,77,46,30.30,30.15,3,1,12,0.00
2013-1-9,39.0,24.7,11.8,28.5,20.0,10.0,94,83,60,30.34,29.90,3,0,14,0.00
2013-1-10,41.5,36.7,25.9,32.4,23.8,19.7,81,60,46,30.48,29.91,9,4,30,0.00
2013-1-11,39.9,29.4,18.9,32.2,24.1,17.0,98,82,53,30.47,30.16,3,0,8,0.09
2013-1-12,41.5,35.1,32.4,38.1,34.0,31.9,99,96,86,30.16,30.06,1,0,4,0.04
2013-1-13,42.6,36.1,32.9,40.2,35.3,32.7,99,97,89,30.10,29.91,1,0,4,0.01
2013-1-14,54.5,39.4,32.0,49.1,33.3,24.7,99,81,46,30.21,29.80,5,1,21,0.00
2013-1-15,41.0,30.9,23.9,29.0,22.8,19.5,93,73,45,30.27,30.17,4,1,13,0.00
2013-1-16,32.4,28.8,25.3,28.8,26.6,23.9,96,91,86,30.19,29.42,1,0,3,7.25
2013-1-17,40.8,26.8,16.9,32.5,19.1,-0.5,98,74,45,30.08,29.76,5,1,17,0.11
2013-1-18,20.7,10.7,3.4,3.3,-7.1,-16.9,81,46,27,30.34,30.04,5,2,18,0.01
2013-1-19,39.4,24.3,8.8,27.1,16.7,3.7,89,73,48,30.27,29.80,1,0,3,0.02
2013-1-20,47.3,30.1,18.7,33.9,19.1,-1.2,98,67,33,29.86,29.46,7,2,27,0.01
2013-1-21,27.9,18.7,8.8,17.0,3.6,-5.3,90,54,30,30.01,29.77,4,1,17,0.00
2013-1-22,25.0,14.6,-2.9,16.2,5.3,-9.0,89,69,31,30.00,29.72,6,2,29,0.00
2013-1-23,6.4,-3.1,-11.4,-4.9,-14.8,-20.5,84,59,28,30.08,29.74,6,2,21,0.00
2013-1-24,14.5,1.1,-13.4,-9.0,-15.5,-19.6,74,48,24,30.22,29.98,8,3,39,0.00
2013-1-25,19.2,8.7,-3.3,0.6,-7.0,-12.2,71,49,27,30.28,30.00,5,2,24,0.00
2013-1-26,17.6,11.1,1.9,3.1,-4.4,-13.4,74,51,25,30.16,29.96,8,2,23,0.00
2013-1-27,23.9,12.4,3.2,0.7,-4.6,-17.3,74,49,20,30.41,30.15,6,2,23,0.00
2013-1-28,26.1,14.6,1.2,17.3,6.9,-5.5,89,73,31,30.40,30.00,3,0,7,0.00
2013-1-29,38.5,25.8,9.9,31.3,21.3,7.6,97,84,58,30.16,30.01,2,0,5,0.08
2013-1-30,38.1,33.9,32.0,36.2,33.3,31.3,99,97,91,30.09,29.38,2,0,6,0.08
2013-1-31,54.1,39.8,26.6,53.9,30.5,7.5,99,72,43,29.48,28.83,9,4,26,0.60
2013-2-1,31.6,22.3,15.4,17.7,8.9,1.3,82,57,34,30.01,29.47,6,3,19,0.00
2013-2-2,27.9,18.4,5.7,13.6,6.9,0.0,82,62,37,30.15,29.98,4,1,10,0.00
2013-2-3,29.8,21.0,11.8,16.2,12.7,9.0,92,71,46,29.99,29.67,6,1,14,0.00
2013-2-4,30.0,19.7,12.2,15.2,5.1,-6.7,87,56,23,29.84,29.65,6,2,19,0.00
2013-2-5,26.1,15.1,1.8,11.0,1.7,-3.0,83,57,30,29.97,29.83,4,1,14,0.00
2013-2-6,36.9,24.1,14.5,23.2,11.9,-10.9,87,62,28,30.26,29.88,4,2,16,0.00
2013-2-7,23.9,16.0,7.7,0.9,-7.7,-13.9,52,35,18,30.49,30.25,5,2,16,0.00
2013-2-8,19.6,15.5,12.7,14.5,8.4,-3.0,93,75,36,30.44,29.78,9,4,27,0.00
2013-2-9,19.8,14.5,10.6,18.6,10.9,2.0,95,86,66,30.17,29.72,8,4,29,0.00
2013-2-10,53.1,16.8,2.3,37.8,2.8,-15.2,88,58,21,30.35,30.17,132,5,132,0.02
2013-2-11,27.0,18.9,5.5,25.7,15.5,1.8,97,86,73,30.30,29.57,1,0,4,0.00
2013-2-12,45.5,33.1,24.4,31.6,26.6,24.0,99,79,48,29.79,29.55,6,2,20,0.11
2013-2-13,42.3,30.6,20.5,25.1,20.6,17.1,89,68,39,29.81,29.70,5,1,15,0.00
2013-2-14,40.3,28.0,19.4,25.1,19.4,16.6,93,73,39,29.94,29.67,4,1,14,0.00
2013-2-15,50.4,30.1,16.5,29.8,22.5,14.9,94,76,41,29.93,29.83,2,0,9,0.00
2013-2-16,41.4,32.0,23.9,27.8,19.0,2.8,88,61,39,29.92,29.72,5,2,14,0.00
2013-2-17,24.1,17.4,11.8,11.7,2.3,-2.6,79,52,38,29.73,29.38,10,5,35,0.00
2013-2-18,28.0,17.1,8.8,0.9,-5.6,-19.2,63,40,12,30.05,29.62,7,4,28,0.00
2013-2-19,42.3,26.6,8.6,32.3,12.8,-3.6,97,59,23,30.10,29.53,5,1,15,0.12
2013-2-20,34.9,29.2,18.5,32.5,20.9,11.2,99,72,48,29.72,29.47,5,1,15,0.01
2013-2-21,26.8,20.0,13.3,15.7,9.7,4.6,89,65,45,30.18,29.71,8,3,26,0.00
2013-2-22,43.3,27.5,10.9,22.9,18.0,8.9,92,70,37,30.37,30.18,4,1,12,0.00
2013-2-23,36.5,31.2,23.4,31.9,27.8,19.5,98,87,74,30.28,29.92,3,0,8,0.00
2013-2-24,37.2,32.6,30.4,32.9,30.9,29.0,98,93,82,29.93,29.72,2,0,8,0.05
2013-2-25,43.7,33.8,25.2,35.9,30.4,23.7,98,88,64,30.19,29.87,2,0,7,0.19
2013-2-26,42.6,35.3,30.9,34.3,30.9,28.2,99,85,64,30.31,30.18,4,1,11,0.00
2013-2-27,36.3,32.7,30.7,33.8,31.0,28.2,99,94,83,30.19,29.65,7,3,19,0.19
2013-2-28,49.1,36.3,30.0,38.7,33.4,29.5,99,90,61,29.65,29.52,1,0,5,0.13
2013-3-1,40.3,34.9,30.2,33.2,28.4,25.4,99,78,56,29.66,29.53,5,2,15,0.01
2013-3-2,43.2,34.1,28.4,28.0,25.4,23.2,89,71,52,29.65,29.59,5,2,16,0.00
2013-3-3,45.5,32.7,27.0,30.5,25.6,22.7,92,76,50,29.63,29.53,5,2,17,0.02
2013-3-4,38.1,29.3,24.8,23.1,20.4,17.7,79,69,51,29.76,29.55,6,3,22,0.00
2013-3-5,47.7,33.2,24.3,31.3,24.6,17.5,97,73,42,30.06,29.76,4,1,15,0.00
2013-3-6,37.8,34.0,31.1,32.8,29.0,24.6,97,82,65,30.17,30.05,8,5,27,0.01
2013-3-7,35.6,31.7,29.8,29.5,25.9,22.5,95,80,61,30.15,30.04,8,4,22,0.00
2013-3-8,47.5,33.9,21.9,31.9,26.7,20.0,96,77,37,30.19,29.99,4,1,10,0.11
2013-3-9,55.6,32.1,16.0,26.7,19.0,-1.2,96,69,10,30.33,30.17,2,1,8,0.00
2013-3-10,49.8,33.7,18.0,29.8,24.8,17.1,97,73,39,30.38,30.24,3,1,10,0.00
2013-3-11,55.4,39.9,30.4,33.9,29.8,25.8,93,71,33,30.27,30.08,3,1,11,0.00
2013-3-12,48.0,41.1,33.1,47.6,40.2,30.8,99,97,89,30.09,29.67,4,1,12,0.63
2013-3-13,50.0,38.2,24.3,41.6,30.4,22.6,99,77,41,29.75,29.68,5,2,17,0.01
2013-3-14,39.0,27.4,17.2,25.7,16.2,2.7,99,65,33,29.80,29.63,7,2,25,0.00
2013-3-15,41.2,25.4,14.0,28.8,11.6,0.8,95,58,27,29.81,29.57,8,3,27,0.00
2013-3-16,37.6,26.1,14.7,22.8,12.3,4.4,91,59,29,29.85,29.64,4,1,13,0.02
2013-3-17,31.1,20.9,9.0,15.0,3.4,-6.1,90,52,22,30.28,29.85,9,2,26,0.00
2013-3-18,41.7,23.9,4.1,18.5,1.0,-13.3,82,43,10,30.40,30.20,3,1,9,0.00
2013-3-19,33.1,27.8,23.5,29.9,25.8,20.9,98,92,73,30.20,29.69,7,3,17,0.00
2013-3-20,42.3,28.4,18.5,25.6,20.8,14.8,96,75,44,29.73,29.62,5,1,16,0.07
2013-3-21,41.5,25.2,8.6,20.5,12.7,5.3,93,65,23,29.73,29.55,4,1,13,0.00
2013-3-22,43.0,30.0,17.1,24.1,16.5,9.9,81,59,26,29.67,29.58,5,2,15,0.00
2013-3-23,43.2,31.8,19.0,21.9,18.4,12.9,89,60,30,29.73,29.58,7,3,23,0.00
2013-3-24,43.9,34.6,22.6,24.0,21.5,18.7,89,60,38,29.80,29.71,8,2,23,0.00
2013-3-25,44.2,31.9,18.5,28.0,23.5,16.9,96,74,46,29.76,29.53,8,2,22,0.00
2013-3-26,48.6,37.3,26.1,30.0,21.0,10.4,90,57,22,29.76,29.56,6,2,16,0.00
2013-3-27,51.1,36.1,21.7,33.3,24.6,20.0,93,67,32,29.87,29.73,8,2,26,0.00
2013-3-28,51.1,39.4,30.9,37.3,30.8,26.8,97,74,41,29.99,29.86,5,1,17,0.00
2013-3-29,54.1,41.1,29.5,36.2,31.7,27.4,93,71,37,30.03,29.96,6,1,20,0.00
2013-3-30,53.4,38.2,24.6,34.3,18.6,-3.4,97,57,10,30.08,29.99,6,2,21,0.00
2013-3-31,60.4,39.9,19.2,38.4,22.0,12.0,95,58,15,30.09,29.77,6,1,17,0.06
2013-4-1,57.6,41.2,28.9,44.3,34.3,10.4,99,79,39,29.77,29.46,6,2,20,0.51
2013-4-2,42.4,30.2,23.0,17.8,9.9,4.5,55,43,24,29.83,29.72,6,3,18,0.00
2013-4-3,44.6,32.2,21.9,14.2,6.3,-9.7,59,37,10,30.09,29.82,7,3,27,0.00
2013-4-4,58.5,37.6,22.6,22.1,10.0,-2.2,69,37,10,30.25,29.59,4,2,13,4.46
2013-4-5,60.4,42.0,30.2,28.3,21.4,11.2,77,48,16,29.92,29.64,7,2,22,0.00
2013-4-6,43.2,31.2,22.3,14.9,2.4,-11.6,61,33,10,30.29,29.67,8,4,24,0.00
2013-4-7,61.0,39.4,20.8,34.6,19.3,11.3,77,49,16,30.28,29.90,6,2,21,0.00
2013-4-8,63.5,45.0,30.4,39.6,30.6,20.7,99,63,20,30.08,29.90,6,2,23,0.00
2013-4-9,59.0,46.8,39.0,47.3,40.7,33.1,99,81,47,30.06,29.86,6,1,17,0.18
2013-4-10,62.8,49.2,41.5,50.3,43.6,39.1,99,83,53,29.98,29.85,5,1,14,0.64
2013-4-11,50.2,42.8,37.2,43.6,30.8,12.1,99,67,30,30.14,29.85,4,1,17,0.04
2013-4-12,39.4,33.4,30.6,32.0,26.5,15.2,97,78,38,30.18,29.88,6,1,16,0.06
2013-4-13,55.8,47.2,39.0,41.0,37.9,34.6,93,72,46,29.89,29.75,3,1,8,0.12
2013-4-14,52.2,40.9,28.6,39.3,33.2,26.4,99,77,39,30.19,29.87,7,1,17,0.00
2013-4-15,61.5,42.2,24.3,37.9,29.7,23.9,99,68,28,30.35,30.19,3,1,12,0.00
2013-4-16,68.2,48.6,29.7,52.5,41.0,28.4,98,78,37,30.36,29.97,6,2,16,0.05
2013-4-17,60.3,51.0,33.3,52.9,30.7,18.8,97,50,21,30.33,29.99,8,3,23,0.00
2013-4-18,67.3,47.4,25.2,34.5,28.2,22.1,95,54,23,30.43,30.10,5,2,20,0.28
2013-4-19,77.7,62.7,50.0,61.6,52.3,29.7,94,70,43,30.11,29.56,7,2,23,0.26
2013-4-20,60.6,49.2,36.7,59.2,34.5,16.6,97,62,27,30.20,29.60,5,2,17,0.18
2013-4-21,52.7,38.6,25.7,22.8,15.0,2.7,78,42,13,30.66,30.20,8,2,21,0.00
2013-4-22,55.4,38.3,21.9,27.5,20.2,5.7,91,56,14,30.74,30.59,8,2,20,0.00
2013-4-23,40.5,34.5,23.2,38.4,31.5,22.0,97,89,76,30.60,30.16,6,2,14,0.00
2013-4-24,80.4,56.8,39.4,52.5,41.4,27.3,98,63,15,30.15,29.72,5,1,14,0.00
2013-4-25,64.4,52.2,32.7,49.7,31.4,11.6,85,49,14,30.28,29.72,6,2,20,0.00
2013-4-26,64.6,44.6,25.3,38.6,29.9,19.8,95,62,19,30.41,30.28,6,1,14,0.00
2013-4-27,70.7,50.0,28.2,40.9,29.5,7.4,98,56,10,30.41,30.24,5,1,15,0.00
2013-4-28,73.4,51.8,29.8,40.0,33.6,24.9,96,57,18,30.32,30.16,4,1,16,0.00
2013-4-29,75.9,55.2,36.0,45.2,37.9,33.1,92,57,26,30.25,30.13,5,1,14,0.00
2013-4-30,75.4,60.0,43.3,44.4,34.8,23.7,75,43,15,30.35,30.22,4,1,11,0.00
2013-5-1,77.9,55.9,31.6,39.1,31.6,14.8,89,48,10,30.44,30.35,4,1,17,0.01
2013-5-2,81.1,55.1,35.2,45.3,34.4,22.6,94,52,13,30.51,30.01,8,2,26,0.00
2013-5-3,74.7,51.5,30.4,44.8,37.4,28.6,97,62,25,30.53,30.36,7,2,16,0.00
2013-5-4,73.4,53.3,35.4,47.3,36.2,11.2,99,61,10,30.37,30.22,6,2,15,0.00
2013-5-5,77.4,51.3,28.8,41.3,34.1,27.2,97,59,16,30.33,30.18,4,1,14,0.00
2013-5-6,80.1,55.4,30.6,44.7,32.9,10.3,99,56,10,30.26,30.09,3,1,8,0.00
2013-5-7,87.4,61.8,37.0,53.1,40.7,17.7,99,58,10,30.17,30.05,3,1,12,0.00
2013-5-8,77.0,63.1,45.3,65.2,55.4,45.1,99,79,46,30.21,30.06,5,2,17,0.07
2013-5-9,74.1,62.7,55.8,61.8,57.8,54.4,99,85,55,30.06,29.89,3,1,10,0.12
2013-5-10,82.6,66.6,54.0,61.1,55.9,49.8,99,73,35,29.96,29.88,4,1,11,0.00
2013-5-11,69.8,61.6,55.4,65.1,59.3,10.7,99,93,10,29.89,29.67,4,1,11,0.20
2013-5-12,74.3,58.7,39.4,60.1,47.0,25.1,99,70,30,29.77,29.56,4,1,24,0.01
2013-5-13,60.1,47.1,36.5,35.5,30.3,25.1,85,55,30,30.04,29.78,4,1,15,0.00
2013-5-14,60.8,45.9,31.1,44.1,28.0,15.3,97,57,19,30.06,29.95,7,2,20,0.00
2013-5-15,73.9,47.4,26.1,53.9,36.9,24.8,99,74,21,30.04,29.66,6,1,14,0.17
2013-5-16,82.2,61.9,45.5,54.1,41.0,22.8,99,57,12,29.84,29.59,6,2,21,0.00
2013-5-17,77.5,55.0,39.7,43.4,37.8,16.7,94,56,10,30.22,29.84,56,3,104,0.28
2013-5-18,80.4,56.2,35.4,46.4,38.8,14.1,98,61,10,30.31,30.20,4,1,11,0.00
2013-5-19,71.2,55.2,40.5,54.4,48.4,39.1,99,80,47,30.35,30.19,4,1,10,0.26
2013-5-20,76.8,63.7,53.6,63.8,58.1,53.3,99,84,58,30.19,29.95,3,1,12,0.08
2013-5-21,73.6,59.0,50.4,62.8,55.6,49.1,99,89,65,30.13,29.91,9,2,20,0.38
2013-5-22,68.4,56.2,50.2,59.5,54.1,49.9,99,93,70,30.01,29.89,3,1,8,0.56
2013-5-23,73.8,60.9,51.4,69.2,59.0,51.2,99,94,71,29.94,29.77,3,1,8,0.33
2013-5-24,75.2,61.0,46.4,69.5,56.2,43.4,99,85,62,29.87,29.63,6,2,18,0.31
2013-5-25,48.2,43.9,33.1,46.7,42.4,32.3,99,94,83,29.87,29.74,5,2,15,0.77
2013-5-26,55.4,44.9,33.3,42.7,37.2,33.0,99,76,50,30.05,29.70,7,3,24,0.40
2013-5-27,72.0,52.2,30.9,48.1,34.1,20.0,99,60,15,30.19,30.05,7,2,23,0.00
2013-5-28,78.8,57.4,32.7,46.5,40.5,32.2,99,60,22,30.25,30.14,3,1,12,0.00
2013-5-29,58.3,54.1,48.4,57.2,52.3,43.5,99,94,83,30.17,30.00,3,1,7,0.26
2013-5-30,90.9,71.6,53.1,67.3,60.8,52.8,99,74,33,30.07,30.00,4,1,14,0.01
2013-5-31,98.4,76.0,55.9,70.0,62.3,51.5,99,68,22,30.10,29.92,4,1,13,0.00
2013-6-1,100.4,79.4,58.8,72.1,65.4,56.9,99,67,27,29.97,29.83,2,1,11,0.00
2013-6-2,93.9,75.3,64.0,72.6,67.4,61.9,99,80,42,29.86,29.66,6,1,23,0.32
2013-6-3,87.8,70.1,51.8,70.0,59.8,48.4,99,75,27,29.83,29.74,3,1,11,0.01
2013-6-4,74.3,57.9,41.7,50.1,42.1,36.7,98,60,30,30.10,29.83,7,2,23,0.00
2013-6-5,80.6,60.0,40.6,49.8,40.4,19.5,99,57,11,30.19,30.08,4,1,15,0.00
2013-6-6,79.2,63.0,49.1,55.3,48.8,40.4,92,63,36,30.21,30.09,4,1,13,0.00
2013-6-7,57.2,53.4,50.9,53.7,51.3,47.8,99,93,79,30.12,29.91,4,2,14,0.52
2013-6-8,74.3,61.7,51.6,61.6,56.5,51.3,99,84,59,30.01,29.70,4,1,15,0.97
2013-6-9,82.8,65.1,50.0,61.6,53.8,47.1,99,72,32,30.18,30.01,5,1,14,0.00
2013-6-10,77.7,62.6,46.2,61.3,55.2,46.0,99,80,50,30.22,30.03,3,1,9,0.11
2013-6-11,63.3,56.7,53.4,57.3,55.2,53.1,99,95,76,30.04,29.59,5,2,17,0.63
2013-6-12,72.0,61.7,54.1,57.8,53.7,50.5,99,77,50,29.83,29.57,6,2,22,0.00
2013-6-13,75.4,60.9,46.0,58.9,53.7,45.8,99,80,47,29.82,29.72,3,0,9,0.13
2013-6-14,82.9,64.5,53.1,61.0,53.0,43.0,99,72,27,29.80,29.69,5,1,11,0.01
2013-6-15,81.0,64.7,45.3,58.4,44.8,30.0,99,57,16,29.94,29.79,5,1,17,0.00
2013-6-16,80.8,62.9,44.6,61.9,54.3,44.3,99,78,43,29.94,29.71,4,1,12,0.01
2013-6-17,83.1,67.1,49.5,64.7,58.3,49.2,99,77,34,29.90,29.77,2,0,10,0.04
2013-6-18,75.6,60.3,51.3,61.3,56.5,51.0,99,88,53,30.00,29.89,2,0,6,0.06
2013-6-19,79.2,63.5,43.3,56.3,44.6,33.2,99,59,20,30.17,29.95,5,2,11,0.00
2013-6-20,86.5,63.5,40.6,56.9,48.1,37.8,99,65,20,30.27,30.17,3,1,11,0.00
2013-6-21,90.7,66.1,46.6,61.2,52.0,41.2,99,68,19,30.25,30.19,3,1,11,0.00
2013-6-22,90.1,72.1,53.1,70.2,61.3,52.7,99,72,40,30.24,30.10,4,1,13,0.00
2013-6-23,98.1,73.6,63.9,78.5,69.0,63.6,99,87,46,30.15,29.95,7,0,21,0.31
2013-6-24,95.7,76.0,61.5,74.4,67.9,61.3,99,80,38,30.01,29.87,3,1,13,0.15
2013-6-25,94.8,76.7,62.8,73.9,68.8,62.5,99,80,39,29.95,29.74,2,0,9,0.13
2013-6-26,84.7,70.2,63.0,74.1,68.2,62.7,99,94,63,29.88,29.74,3,0,8,0.37
2013-6-27,78.4,68.2,63.0,69.9,65.7,62.7,99,92,71,29.87,29.78,3,1,10,0.01
2013-6-28,67.1,61.8,57.4,65.6,61.4,57.1,99,98,94,29.78,29.51,5,2,17,0.93
2013-6-29,90.3,72.6,63.5,75.1,67.1,63.2,99,85,44,29.71,29.50,4,1,14,0.32
2013-6-30,92.5,73.8,61.9,74.6,67.9,61.6,99,84,52,29.94,29.70,3,1,11,0.80
2013-7-1,83.8,72.9,64.8,74.0,69.5,64.5,99,90,65,30.08,29.94,2,0,8,0.21
2013-7-2,81.0,67.9,61.3,75.5,66.5,61.1,99,95,79,30.23,30.06,7,1,15,0.54
2013-7-3,95.7,74.9,61.2,78.7,68.9,60.9,99,84,45,30.21,30.10,2,1,9,0.02
2013-7-4,100.2,81.8,65.7,78.2,72.6,65.4,99,77,40,30.20,30.07,2,1,8,0.00
2013-7-5,100.2,83.3,67.8,77.6,72.1,66.6,99,73,36,30.16,30.02,2,0,11,0.00
2013-7-6,94.8,79.5,66.6,74.6,69.3,61.4,99,75,40,30.08,29.98,3,1,12,0.00
2013-7-7,92.8,76.9,63.3,74.6,68.4,63.1,99,78,44,30.04,29.92,3,0,8,0.08
2013-7-8,88.9,74.1,64.9,76.2,70.7,64.7,99,90,60,30.09,29.93,4,1,10,1.32
2013-7-9,81.5,71.0,64.9,72.4,67.8,64.7,99,90,68,30.12,30.06,2,0,7,0.00
2013-7-10,79.7,70.3,66.2,72.5,68.9,65.9,99,95,75,30.09,29.79,2,1,8,0.41
2013-7-11,86.5,74.6,62.6,76.9,68.6,61.5,99,84,50,29.99,29.76,3,0,11,0.01
2013-7-12,89.2,70.2,57.4,66.7,60.9,56.9,99,76,37,30.23,29.99,4,1,10,0.00
2013-7-13,87.6,71.7,57.0,71.3,64.8,56.8,99,81,45,30.34,30.23,3,0,8,0.01
2013-7-14,92.5,79.2,63.7,74.0,69.6,63.4,99,75,46,30.32,30.20,3,0,8,0.00
2013-7-15,95.2,78.4,63.3,74.3,66.9,60.2,99,72,35,30.23,30.11,5,1,16,0.00
2013-7-16,94.1,78.4,63.1,72.6,67.1,62.9,99,72,40,30.19,30.14,5,1,15,0.00
2013-7-17,102.2,81.1,63.7,76.0,70.3,63.4,99,73,35,30.20,29.98,6,0,16,0.01
2013-7-18,96.8,79.2,67.3,76.5,71.9,67.0,99,81,44,30.04,29.95,3,1,8,0.11
2013-7-19,99.7,82.1,69.6,78.9,73.2,69.4,99,78,39,29.96,29.69,4,1,12,0.06
2013-7-20,93.4,77.7,65.3,74.5,69.4,64.3,99,78,43,29.82,29.65,3,1,14,0.05
2013-7-21,85.5,73.8,60.1,68.5,63.8,58.6,99,74,44,30.02,29.82,2,0,7,0.00
2013-7-22,81.0,69.3,62.8,71.8,66.0,61.6,99,90,68,30.05,29.93,2,1,7,0.59
2013-7-23,77.9,66.8,62.6,71.6,65.4,62.3,99,95,76,29.92,29.56,3,1,8,1.36
2013-7-24,80.8,68.5,53.6,72.8,60.7,46.7,99,78,50,30.01,29.59,6,2,20,0.01
2013-7-25,76.5,62.6,46.0,62.0,53.7,45.8,99,75,47,30.12,30.00,4,1,11,0.00
2013-7-26,85.5,67.4,60.3,71.0,62.9,60.0,99,87,52,30.10,29.95,4,0,15,0.19
2013-7-27,90.0,70.4,54.0,68.0,60.7,53.5,99,75,36,30.05,29.98,2,0,8,0.00
2013-7-28,85.3,69.9,55.6,70.5,64.6,55.3,99,85,56,30.03,29.97,4,1,14,0.04
2013-7-29,87.3,70.8,60.6,72.3,66.9,60.4,99,89,56,30.06,29.95,4,1,12,0.06
2013-7-30,82.2,68.4,54.5,66.3,57.1,48.8,99,72,32,30.11,30.04,4,1,14,0.01
2013-7-31,84.4,68.3,51.4,65.2,58.2,46.2,99,74,28,30.16,30.03,3,1,10,0.00
2013-8-1,85.8,67.2,53.1,66.8,61.5,52.8,99,85,45,30.06,29.87,4,1,12,0.32
2013-8-2,85.1,70.0,58.8,69.7,62.6,52.8,99,81,37,29.88,29.78,3,1,16,0.02
2013-8-3,82.8,65.4,54.1,68.3,57.2,52.1,99,78,38,29.86,29.76,4,1,21,0.02
2013-8-4,77.5,63.2,50.2,66.5,54.9,49.9,99,77,46,29.90,29.80,5,1,15,0.05
2013-8-5,75.4,59.5,47.1,56.2,44.8,21.9,99,65,14,30.06,29.89,6,2,21,0.00
2013-8-6,80.4,61.4,42.1,57.9,50.5,41.6,99,72,35,30.16,30.06,2,0,8,0.00
2013-8-7,81.9,66.0,47.8,60.8,54.4,47.6,99,70,39,30.19,30.08,4,1,14,0.00
2013-8-8,88.2,70.7,62.1,71.8,65.2,57.9,99,84,52,30.11,29.98,4,1,12,0.02
2013-8-9,80.8,72.5,64.9,76.1,70.8,64.7,99,95,79,30.01,29.74,2,1,8,0.48
2013-8-10,82.6,68.6,52.0,73.0,57.4,42.3,99,73,25,30.03,29.78,4,1,16,0.01
2013-8-11,81.7,62.2,45.0,57.4,50.9,44.6,99,72,28,30.09,30.00,4,1,11,0.00
2013-8-12,85.8,66.1,50.7,61.2,55.6,49.7,99,73,34,30.03,29.92,3,1,12,0.00
2013-8-13,73.6,63.7,54.0,68.3,61.8,53.7,99,94,76,29.93,29.69,1,0,4,0.61
2013-8-14,77.0,63.5,49.3,64.7,54.0,45.5,99,74,37,29.95,29.66,5,1,21,0.00
2013-8-15,77.9,59.4,44.4,57.0,49.2,43.6,99,74,30,30.11,29.94,4,1,12,0.00
2013-8-16,81.9,61.9,44.8,58.8,51.2,41.9,99,74,28,30.20,30.10,4,1,11,0.00
2013-8-17,81.1,64.0,48.2,61.0,52.7,44.5,99,73,29,30.29,30.20,4,1,10,0.00
2013-8-18,84.9,66.1,50.9,62.9,56.6,50.1,99,76,39,30.29,30.08,1,0,7,0.00
2013-8-19,85.3,67.6,50.4,63.5,56.6,50.1,99,73,32,30.08,29.93,3,0,11,0.00
2013-8-20,85.6,69.0,53.8,65.2,58.5,51.3,99,74,32,30.11,29.99,4,0,11,0.00
2013-8-21,88.3,70.6,55.6,65.9,60.6,55.3,99,75,35,30.16,30.02,2,0,8,0.00
2013-8-22,90.3,72.8,57.0,68.1,62.3,56.0,99,74,33,30.03,29.81,2,0,8,0.00
2013-8-23,77.4,66.8,49.5,66.2,51.4,35.2,97,64,24,30.16,29.83,5,2,16,0.00
2013-8-24,82.2,59.4,41.9,54.8,45.4,34.1,98,68,20,30.34,30.16,3,0,8,0.00
2013-8-25,82.4,62.2,43.3,57.9,50.2,41.6,98,71,25,30.37,30.15,2,0,9,0.00
2013-8-26,82.4,69.2,59.4,70.1,63.6,54.6,99,84,54,30.17,29.87,1,0,5,0.26
2013-8-27,86.4,73.0,62.1,71.5,65.0,60.0,99,80,42,29.92,29.83,3,0,6,0.00
2013-8-28,90.5,71.7,59.9,70.8,64.7,59.6,99,82,38,30.02,29.85,6,1,16,0.73
2013-8-29,72.7,65.2,61.0,68.1,63.1,60.3,99,93,75,30.10,29.97,3,0,10,0.01
2013-8-30,85.8,70.4,60.4,69.7,64.3,60.0,99,84,43,30.04,29.80,2,0,8,0.00
2013-8-31,83.3,73.2,64.8,73.8,69.0,64.5,99,88,64,29.83,29.75,2,1,8,0.04
2013-9-1,88.2,75.2,64.8,74.3,68.3,60.6,99,82,41,29.89,29.78,4,0,11,0.47
2013-9-2,80.8,71.8,67.8,76.0,69.9,67.6,99,94,70,29.88,29.72,4,1,9,0.61
2013-9-3,80.2,68.6,57.9,71.7,64.1,57.7,99,87,54,29.80,29.71,2,0,8,0.01
2013-9-4,78.6,64.4,52.5,63.8,54.0,41.4,99,75,28,29.91,29.79,4,1,14,0.00
2013-9-5,68.0,58.2,41.2,59.6,44.1,20.3,99,68,19,30.16,29.86,6,1,18,0.02
2013-9-6,69.4,50.8,34.9,48.7,37.8,25.4,97,69,21,30.25,30.07,2,0,11,0.00
2013-9-7,78.6,58.7,42.8,55.3,47.1,38.2,97,72,26,30.07,29.83,2,0,11,0.01
2013-9-8,65.3,56.3,40.8,57.9,42.4,26.5,93,65,26,30.09,29.74,8,2,24,0.00
2013-9-9,75.4,52.0,34.0,47.8,38.3,28.9,94,67,20,30.22,30.09,3,0,11,0.00
2013-9-10,73.6,59.4,46.0,65.1,55.5,43.4,95,87,69,30.12,30.01,1,0,4,0.12
2013-9-11,95.2,75.6,63.7,74.1,67.5,62.2,99,80,35,30.06,29.91,5,0,14,0.13
2013-9-12,82.0,70.0,64.8,76.1,68.3,64.5,99,95,72,29.95,29.67,4,0,12,0.70
2013-9-13,75.2,65.0,55.6,70.1,58.8,48.8,99,82,50,29.78,29.60,4,1,15,0.09
2013-9-14,64.6,55.9,43.5,49.6,44.9,40.2,88,68,45,30.05,29.77,5,1,15,0.00
2013-9-15,70.5,53.7,38.7,54.9,44.3,34.8,99,75,27,30.14,30.01,2,0,7,0.00
2013-9-16,66.7,54.1,37.2,57.6,41.2,24.0,98,65,34,30.27,29.99,7,2,21,0.01
2013-9-17,64.2,45.8,30.6,42.1,31.6,20.2,91,64,19,30.43,30.27,2,0,8,0.00
2013-9-18,72.7,50.0,34.3,50.5,37.1,12.7,94,70,11,30.32,30.12,2,0,8,0.00
2013-9-19,77.4,55.2,38.8,55.7,43.2,31.0,97,71,20,30.13,30.02,2,0,8,0.00
2013-9-20,77.5,56.6,41.5,58.4,47.1,39.1,97,75,31,30.10,29.99,2,0,8,0.00
2013-9-21,76.5,61.8,46.2,60.1,51.4,43.7,99,72,35,30.01,29.69,4,2,14,0.00
2013-9-22,68.9,61.7,46.0,61.9,47.7,32.6,92,63,31,29.84,29.58,6,2,16,0.32
2013-9-23,55.9,48.9,43.9,35.5,29.3,24.6,67,47,31,29.99,29.84,7,3,25,0.00
2013-9-24,62.6,51.8,44.8,37.3,29.6,19.8,68,44,20,29.97,29.83,6,2,24,0.00
2013-9-25,66.2,53.1,39.0,47.2,37.0,30.8,89,57,27,30.00,29.87,4,1,14,0.00
2013-9-26,68.0,51.7,35.8,46.5,36.8,29.0,87,62,24,30.15,30.00,3,0,9,0.00
2013-9-27,69.6,55.8,45.3,49.6,43.1,34.0,85,67,28,30.27,30.15,4,0,11,0.00
2013-9-28,71.6,53.9,40.3,57.3,41.0,27.8,94,69,20,30.34,30.26,4,1,11,0.00
2013-9-29,72.5,52.8,39.2,55.6,41.5,33.2,92,70,24,30.27,30.09,2,0,8,0.00
2013-9-30,69.8,50.7,36.3,50.6,38.9,28.4,91,69,22,30.13,29.96,4,1,11,0.00
2013-10-1,75.0,54.7,37.8,55.7,39.6,20.0,92,66,14,29.98,29.84,6,1,15,0.00
2013-10-2,80.1,59.2,43.7,57.7,45.2,36.1,92,66,23,29.94,29.81,4,1,17,0.00
2013-10-3,75.6,57.4,44.4,55.8,40.5,13.2,93,64,10,30.08,29.94,4,0,11,0.00
2013-10-4,71.2,55.7,40.5,51.6,42.9,33.9,90,66,26,30.10,30.02,1,0,4,0.00
2013-10-5,69.1,60.1,54.5,50.2,42.3,25.4,80,56,21,30.12,30.05,2,0,5,0.00
2013-10-6,57.9,52.4,49.1,49.0,38.7,25.6,87,62,32,30.26,30.12,4,1,13,0.17
2013-10-7,71.1,57.3,50.2,63.7,53.0,46.5,90,85,74,30.15,29.71,5,1,18,0.30
2013-10-8,61.5,49.4,35.1,46.9,29.0,1.6,90,56,10,30.39,29.89,4,1,14,0.01
2013-10-9,63.0,42.8,28.0,42.7,29.4,13.9,85,65,16,30.48,30.36,3,0,8,0.00
2013-10-10,67.3,47.1,33.8,46.6,34.4,19.2,88,67,16,30.37,30.18,2,0,5,0.00
2013-10-11,69.4,52.0,40.3,47.4,35.0,9.9,87,62,10,30.18,30.11,4,0,11,0.00
2013-10-12,56.7,48.4,37.6,51.6,40.9,32.6,90,75,66,30.40,30.17,5,1,11,0.00
2013-10-13,60.4,48.2,35.8,48.2,36.4,30.5,87,66,37,30.45,30.38,2,0,8,0.00
2013-10-14,69.3,51.0,36.0,44.7,38.4,30.4,86,65,28,30.38,30.20,2,0,8,0.00
2013-10-15,67.8,57.7,48.7,50.8,43.6,37.2,80,62,36,30.26,30.17,3,0,8,0.00
2013-10-16,62.8,55.4,46.9,46.9,41.5,30.6,78,62,30,30.18,29.90,3,0,8,0.00
2013-10-17,72.1,55.6,45.3,49.0,37.9,13.4,83,59,11,29.89,29.69,3,0,8,0.00
2013-10-18,65.5,54.0,41.0,48.4,37.8,24.8,85,59,23,29.87,29.58,4,1,14,0.22
2013-10-19,66.2,48.1,32.9,43.1,31.6,18.6,82,58,16,29.94,29.71,3,0,8,0.00
2013-10-20,61.9,47.4,34.2,41.0,24.6,-0.2,82,51,10,29.98,29.65,5,1,17,0.01
2013-10-21,64.4,44.5,28.6,39.2,27.8,13.8,80,58,14,30.08,29.94,3,0,10,0.00
2013-10-22,57.6,44.7,34.3,46.0,35.0,26.9,81,69,49,29.94,29.69,2,0,8,0.02
2013-10-23,55.4,41.2,31.5,36.3,21.1,-2.0,81,53,10,29.77,29.56,2,0,8,0.00
2013-10-24,49.8,39.4,26.8,27.3,17.6,0.7,74,46,16,29.84,29.62,3,1,14,0.00
2013-10-25,46.4,34.4,25.3,31.5,11.2,-9.4,75,46,10,30.09,29.84,6,1,17,0.00
2013-10-26,49.3,36.6,22.8,26.7,15.9,0.4,70,47,13,30.10,29.82,4,0,17,0.00
2013-10-27,53.2,41.5,26.4,28.7,15.6,-6.9,64,40,10,30.01,29.74,5,1,19,0.00
2013-10-28,54.0,36.7,25.0,29.2,11.6,-11.2,68,42,10,30.33,30.01,7,1,24,0.00
2013-10-29,47.5,28.9,18.1,18.2,4.2,-13.2,65,41,10,30.43,30.32,3,0,8,0.00
2013-10-30,50.5,33.5,22.5,21.9,13.5,5.2,67,46,17,30.33,30.16,3,0,9,0.00
2013-10-31,46.0,36.3,25.7,40.5,26.7,16.3,81,68,54,30.22,29.72,1,0,3,0.17
2013-11-1,68.2,58.2,43.7,58.8,49.7,37.0,90,75,42,29.72,29.35,5,2,17,0.31
2013-11-2,66.0,47.6,33.3,47.0,33.4,13.4,89,64,13,29.76,29.57,3,1,13,0.05
2013-11-3,41.5,35.4,21.9,29.7,1.9,-18.3,70,30,10,30.40,29.77,5,2,16,0.00
2013-11-4,40.8,25.9,16.7,12.5,0.7,-15.8,61,39,10,30.68,30.41,4,0,8,0.00
2013-11-5,46.8,30.3,17.1,18.2,8.7,-3.3,63,45,12,30.68,30.46,4,1,11,0.00
2013-11-6,60.3,43.2,28.8,31.5,23.7,16.2,65,48,23,30.46,29.95,4,1,12,0.00
2013-11-7,56.8,49.8,39.6,48.1,32.2,13.2,74,52,33,29.96,29.65,5,2,18,0.02
2013-11-8,44.8,33.8,22.5,23.5,10.2,-0.9,63,40,15,30.02,29.78,4,1,14,0.01
2013-11-9,43.0,36.0,30.0,14.7,-0.2,-12.9,45,24,10,30.14,29.98,4,1,14,0.00
2013-11-10,42.4,35.9,31.5,29.4,25.0,14.4,76,65,44,29.98,29.68,2,0,7,0.08
2013-11-11,48.6,39.8,34.9,28.2,10.3,-7.0,73,32,10,30.04,29.79,4,1,17,0.00
2013-11-12,41.7,30.8,25.2,19.6,-2.7,-17.8,52,25,10,30.13,29.81,6,3,20,0.00
2013-11-13,33.6,24.8,19.4,-0.3,-11.5,-24.8,40,21,10,30.25,30.05,5,2,17,0.00
2013-11-14,48.2,30.9,20.1,12.1,4.0,-9.0,59,36,10,30.06,29.97,4,1,14,0.00
2013-11-15,54.1,32.1,19.9,20.5,8.4,-6.2,63,43,10,30.16,30.05,2,0,5,0.00
2013-11-16,56.1,35.8,25.5,16.6,9.2,-5.5,55,38,10,30.29,30.15,1,0,5,0.00
2013-11-17,42.6,34.4,23.5,35.3,22.8,10.7,76,62,49,30.29,29.83,2,0,4,0.21
2013-11-18,61.2,48.9,37.6,53.9,32.1,12.8,90,58,16,29.82,29.45,5,1,17,0.30
2013-11-19,42.8,34.8,29.3,14.5,-5.1,-16.2,43,19,10,30.27,29.60,7,4,27,0.00
2013-11-20,38.5,27.6,17.8,2.9,-7.9,-20.7,50,23,10,30.59,30.27,5,2,21,0.00
2013-11-21,46.4,27.2,13.3,11.2,0.3,-13.0,60,37,10,30.60,30.32,2,0,6,0.00
2013-11-22,38.5,34.0,27.1,29.2,20.2,5.0,75,57,37,30.32,29.76,1,0,3,0.07
2013-11-23,40.1,33.0,23.5,33.0,7.7,-17.5,80,41,10,29.88,29.70,5,2,27,0.01
2013-11-24,23.4,18.8,14.2,0.4,-19.4,-32.2,37,18,10,30.12,29.73,10,4,31,0.00
2013-11-25,28.2,19.3,11.5,-6.1,-25.3,-34.4,26,12,10,30.30,30.12,4,2,20,0.00
2013-11-26,36.5,29.8,23.5,22.8,9.8,-6.2,68,44,26,30.26,30.05,2,0,4,0.02
2013-11-27,45.1,38.7,32.2,42.1,32.9,15.9,89,80,47,30.05,29.21,8,2,23,1.46
2013-11-28,34.0,24.1,11.3,15.9,-6.2,-25.3,49,29,10,30.36,29.37,6,2,20,0.00
2013-11-29,26.4,14.3,6.1,3.5,-12.6,-28.6,56,34,10,30.69,30.36,6,1,17,0.00
2013-11-30,28.2,16.9,2.3,2.1,-13.7,-24.2,46,28,10,30.76,30.37,4,0,11,0.00
2013-12-1,38.5,32.1,26.2,15.7,4.8,-9.3,46,32,20,30.37,30.00,2,0,6,0.00
2013-12-2,42.6,35.6,29.7,21.4,17.5,12.3,60,48,35,30.01,29.87,3,0,8,0.00
2013-12-3,49.3,35.5,24.4,23.3,14.9,-7.5,66,47,11,29.90,29.81,3,1,11,0.00
2013-12-4,40.8,30.2,23.2,17.2,3.5,-12.7,62,35,10,30.15,29.89,5,1,18,0.00
2013-12-5,35.1,32.0,22.8,25.8,18.3,9.1,71,57,43,30.18,29.86,2,0,5,0.06
2013-12-6,46.8,38.4,33.1,37.8,24.5,7.2,84,59,31,30.10,29.81,3,1,10,0.08
2013-12-7,36.5,29.4,16.3,20.7,-1.8,-22.0,65,31,10,30.39,30.04,5,1,17,0.00
2013-12-8,29.5,22.8,16.0,4.0,-9.1,-23.8,53,28,10,30.52,30.38,4,1,11,0.00
2013-12-9,28.0,25.4,22.5,16.7,6.1,-18.5,62,46,13,30.45,29.81,5,1,12,0.00
2013-12-10,34.5,25.2,11.3,21.7,11.3,-4.1,67,55,35,29.89,29.72,2,0,7,0.00
2013-12-11,32.0,18.1,7.7,7.2,-6.1,-21.8,55,37,10,30.09,29.89,3,1,14,0.00
2013-12-12,18.7,8.8,0.7,-7.8,-20.0,-36.3,45,28,10,30.21,29.94,5,1,20,0.00
2013-12-13,25.7,8.6,-1.7,-2.6,-23.8,-41.2,39,24,10,30.35,29.86,5,1,16,0.00
2013-12-14,15.4,7.1,-2.0,-9.5,-31.2,-43.4,39,16,10,30.54,30.18,4,1,13,0.00
2013-12-15,31.8,17.8,7.7,21.8,3.6,-10.0,66,53,39,30.17,29.40,8,2,22,0.00
2013-12-16,23.4,11.6,-1.5,5.4,-11.7,-28.6,54,35,13,30.15,29.63,5,1,17,0.00
2013-12-17,14.4,3.3,-13.0,-14.5,-28.8,-47.1,31,21,10,30.21,29.94,3,0,8,0.00
2013-12-18,32.0,18.5,10.9,-2.6,-11.7,-23.0,40,27,10,29.96,29.83,4,1,16,0.01
2013-12-19,38.5,25.9,15.3,8.3,-0.5,-16.1,43,33,10,30.03,29.86,2,0,7,0.01
2013-12-20,41.2,32.5,26.8,21.2,13.2,3.8,60,46,22,30.06,29.86,1,0,3,0.06
2013-12-21,45.0,35.5,32.9,25.9,23.0,18.4,70,61,37,29.88,29.79,1,0,5,0.07
2013-12-22,38.5,33.4,30.6,33.8,27.2,25.8,88,78,70,30.00,29.74,6,1,15,0.15
2013-12-23,34.3,32.1,30.0,32.7,29.6,25.8,97,90,84,30.07,29.92,1,0,7,0.21
2013-12-24,33.1,25.6,13.8,31.8,0.7,-21.7,95,41,10,30.16,30.00,1,0,5,0.00
2013-12-25,18.9,10.4,3.9,-10.4,-25.2,-39.3,38,19,10,30.46,30.16,3,0,15,0.00
2013-12-26,25.0,15.9,7.5,4.0,-3.8,-10.9,47,41,36,30.42,30.04,1,0,4,0.00
2013-12-27,30.9,16.1,4.5,8.8,-3.6,-15.4,52,41,19,30.17,30.09,1,0,6,0.00
2013-12-28,38.3,23.9,7.7,22.8,7.6,-9.1,70,50,26,30.12,29.90,2,0,6,0.02
2013-12-29,35.6,29.1,20.8,30.1,20.7,12.0,92,71,55,29.96,29.48,1,0,3,0.01
2013-12-30,37.2,24.6,3.9,37.0,10.3,-23.6,99,62,23,30.13,29.46,2,0,7,0.04
2013-12-31,16.9,5.2,-3.8,-14.1,-24.4,-36.5,34,25,10,30.12,29.95,0,0,0,0.00
2014-1-1,22.3,6.2,-6.0,-9.9,-24.9,-32.8,33,23,10,30.32,30.06,0,0,0,0.00
2014-1-2,11.1,5.5,-1.1,-16.4,-23.9,-32.0,29,23,16,30.31,29.87,0,0,0,0.00